contact:dominique.lefevre@mio.osupytheas.fr, maurice.libes@osupytheas.fr, didier.mallarino@osupytheas.fr
Project:EMSO http://www.emso-fr.org/EMSO-France
Depth: 2436.0 m
Title:EMSO Ligure Ouest : Data MII capteur AQUADOPP
Date,Latitude,Longitude,X_East,Y_North,Z_Up,Amplitude_X,Amplitude_Y,Amplitude_Z,Batterie,SoundSpeed,Heading,Pitch,Roll,Pressure,TIS,Speed,Direction
, degrees North, degrees East, m.s-1, m.s-1,m.s-1, 1, 1, 1, Volt, m.s-1, degree, degree, degree, dbar, degree_C, m.s-1, degree
2022-05-27T00:04:03,42.805,6.029,-0.011,-0.046,0.002,108.0,107.0,104.0,13.3,1505.2,329.6,-0.8,1.8,2470.863,13.28,0.047,193.4
2022-05-27T00:07:03,42.805,6.029,0.008,-0.049,-0.008,109.0,107.0,104.0,13.4,1505.2,328.6,-0.8,1.8,2470.824,13.28,0.049,170.7
2022-05-27T00:10:03,42.805,6.029,-0.008,-0.024,-0.026,109.0,106.0,104.0,13.4,1505.2,322.3,-0.8,1.8,2470.809,13.28,0.025,198.4
2022-05-27T00:13:03,42.805,6.029,0.015,-0.035,-0.013,108.0,106.0,104.0,13.3,1505.2,326.3,-0.8,1.8,2470.842,13.28,0.038,156.8
2022-05-27T00:16:03,42.805,6.029,0.014,-0.033,-0.047,109.0,108.0,102.0,13.4,1505.2,323.6,-0.8,1.8,2470.809,13.28,0.035,157.0
2022-05-27T00:19:03,42.805,6.029,-0.003,-0.052,-0.013,108.0,109.0,105.0,13.4,1505.2,327.5,-0.7,1.8,2470.844,13.28,0.052,183.3
2022-05-27T00:22:03,42.805,6.029,0.005,-0.029,-0.018,108.0,107.0,106.0,13.3,1505.2,328.4,-0.8,1.8,2470.839,13.28,0.029,170.2
2022-05-27T00:25:03,42.805,6.029,-0.015,-0.052,0.004,108.0,107.0,105.0,13.4,1505.2,330.1,-0.7,1.8,2470.817,13.28,0.054,196.1
2022-05-27T00:28:03,42.805,6.029,-0.006,-0.03,0.013,107.0,107.0,105.0,13.4,1505.2,322.6,-0.8,1.9,2470.782,13.28,0.03,191.3
2022-05-27T00:31:03,42.805,6.029,-0.007,-0.016,-0.009,108.0,108.0,104.0,13.4,1505.2,327.6,-0.7,1.8,2470.791,13.28,0.017,203.6
2022-05-27T00:34:03,42.805,6.029,-0.014,-0.049,-0.018,109.0,108.0,105.0,13.3,1505.2,332.8,-0.8,1.8,2470.82,13.28,0.05,195.9
2022-05-27T00:37:03,42.805,6.029,-0.008,-0.051,-0.013,109.0,106.0,105.0,13.3,1505.2,323.9,-0.7,1.8,2470.802,13.28,0.051,188.9
2022-05-27T00:40:03,42.805,6.029,-0.016,-0.041,0.016,109.0,108.0,104.0,13.4,1505.2,327.7,-0.7,1.9,2470.809,13.28,0.044,201.3
2022-05-27T00:43:03,42.805,6.029,-0.009,-0.034,-0.024,108.0,108.0,105.0,13.3,1505.2,324.2,-0.8,1.8,2470.783,13.28,0.035,194.8
2022-05-27T00:46:03,42.805,6.029,-0.023,-0.045,-0.035,107.0,107.0,104.0,13.4,1505.2,320.0,-0.8,1.8,2470.798,13.28,0.05,207.1
2022-05-27T00:49:03,42.805,6.029,-0.017,-0.05,-0.034,109.0,107.0,105.0,13.4,1505.2,333.0,-0.7,1.8,2470.79,13.28,0.052,198.8
2022-05-27T00:52:03,42.805,6.029,-0.014,-0.044,-0.048,108.0,107.0,104.0,13.4,1505.2,329.1,-0.8,1.8,2470.816,13.28,0.046,197.6
2022-05-27T00:55:03,42.805,6.029,-0.003,-0.034,-0.031,108.0,108.0,104.0,13.3,1505.2,324.7,-0.8,1.8,2470.824,13.28,0.034,185.0
2022-05-27T00:58:03,42.805,6.029,0.011,-0.039,0.014,109.0,107.0,105.0,13.4,1505.2,327.8,-0.7,1.8,2470.812,13.28,0.04,164.3
2022-05-27T01:04:03,42.805,6.029,-0.009,-0.036,-0.026,109.0,108.0,106.0,13.4,1505.2,328.0,-0.8,1.8,2470.803,13.28,0.037,194.0
2022-05-27T01:07:02,42.805,6.029,-0.004,-0.022,0.002,108.0,108.0,105.0,13.4,1505.2,331.7,-0.8,1.8,2470.851,13.28,0.022,190.3
2022-05-27T01:10:03,42.805,6.029,-0.016,-0.025,-0.013,108.0,108.0,104.0,13.4,1505.2,329.6,-0.8,1.8,2470.826,13.28,0.029,212.6
2022-05-27T01:13:03,42.805,6.029,0.001,-0.044,-0.012,108.0,108.0,104.0,13.4,1505.2,332.1,-0.8,1.8,2470.814,13.28,0.044,178.7
2022-05-27T01:16:03,42.805,6.029,-0.003,-0.048,0.009,109.0,108.0,105.0,13.4,1505.2,323.6,-0.8,1.8,2470.83,13.28,0.048,183.6
2022-05-27T01:19:03,42.805,6.029,-0.027,-0.038,-0.036,108.0,107.0,105.0,13.4,1505.2,329.4,-0.7,1.8,2470.837,13.28,0.046,215.4
2022-05-27T01:22:03,42.805,6.029,-0.006,-0.029,-0.025,108.0,107.0,105.0,13.4,1505.2,325.5,-0.7,1.8,2470.844,13.28,0.029,191.7
2022-05-27T01:25:03,42.805,6.029,-0.019,-0.025,-0.021,107.0,106.0,105.0,13.4,1505.2,328.9,-0.8,1.8,2470.827,13.28,0.031,217.2
2022-05-27T01:28:03,42.805,6.029,-0.014,-0.004,-0.005,106.0,107.0,104.0,13.3,1505.2,322.9,-0.8,1.8,2470.84,13.28,0.014,254.1
2022-05-27T01:31:03,42.805,6.029,-0.003,-0.025,-0.017,108.0,107.0,105.0,13.3,1505.2,329.8,-0.7,1.8,2470.84,13.28,0.025,186.8
2022-05-27T01:34:03,42.805,6.029,-0.002,-0.024,-0.022,108.0,108.0,106.0,13.3,1505.2,332.3,-0.7,1.8,2470.821,13.28,0.024,184.8
2022-05-27T01:37:03,42.805,6.029,-0.003,-0.04,-0.032,107.0,107.0,105.0,13.4,1505.2,326.9,-0.8,1.8,2470.837,13.28,0.04,184.3
2022-05-27T01:40:03,42.805,6.029,-0.002,-0.04,-0.022,109.0,108.0,105.0,13.4,1505.2,322.2,-0.7,1.9,2470.847,13.28,0.04,182.9
2022-05-27T01:43:03,42.805,6.029,-0.007,-0.03,0.019,109.0,107.0,106.0,13.4,1505.2,329.6,-0.8,1.8,2470.855,13.28,0.03,193.1
2022-05-27T01:46:03,42.805,6.029,0.005,-0.029,-0.017,108.0,106.0,104.0,13.4,1505.2,322.2,-0.8,1.8,2470.866,13.28,0.029,170.2
2022-05-27T01:49:03,42.805,6.029,0.0,-0.04,-0.004,107.0,107.0,105.0,13.4,1505.2,323.3,-0.8,1.8,2470.827,13.28,0.04,180.0
2022-05-27T01:52:03,42.805,6.029,-0.008,-0.041,-0.02,109.0,108.0,103.0,13.4,1505.2,333.0,-0.7,1.9,2470.901,13.28,0.041,191.0
2022-05-27T01:55:03,42.805,6.029,0.0,-0.019,0.0,107.0,106.0,106.0,13.4,1505.2,331.8,-0.8,1.8,2470.862,13.28,0.019,180.0
2022-05-27T01:58:03,42.805,6.029,0.0,-0.025,-0.032,108.0,107.0,104.0,13.4,1505.2,331.9,-0.7,1.8,2470.826,13.28,0.025,180.0
2022-05-27T02:04:03,42.805,6.029,-0.01,-0.026,-0.017,109.0,107.0,105.0,13.3,1505.2,327.8,-0.8,1.8,2470.904,13.28,0.027,201.0
2022-05-27T02:07:03,42.805,6.029,0.008,-0.02,-0.034,108.0,109.0,103.0,13.4,1505.2,328.1,-0.8,1.8,2470.891,13.28,0.021,158.2
2022-05-27T02:10:03,42.805,6.029,-0.001,-0.024,-0.014,109.0,105.0,104.0,13.4,1505.2,328.3,-0.8,1.8,2470.853,13.28,0.024,182.4
2022-05-27T02:13:03,42.805,6.029,0.0,-0.027,-0.018,108.0,108.0,106.0,13.4,1505.2,326.1,-0.8,1.8,2470.873,13.28,0.026,180.0
2022-05-27T02:16:03,42.805,6.029,0.008,-0.031,-0.013,108.0,108.0,106.0,13.4,1505.2,324.5,-0.7,1.8,2470.89,13.28,0.032,165.5
2022-05-27T02:19:03,42.805,6.029,-0.006,-0.046,-0.037,108.0,108.0,104.0,13.4,1505.2,325.2,-0.8,1.8,2470.883,13.28,0.046,187.4
2022-05-27T02:22:03,42.805,6.029,-0.008,-0.039,-0.005,108.0,107.0,104.0,13.4,1505.2,325.3,-0.7,1.8,2470.87,13.28,0.039,191.6
2022-05-27T02:25:03,42.805,6.029,-0.015,-0.026,-0.011,109.0,106.0,104.0,13.4,1505.2,328.7,-0.8,1.8,2470.873,13.28,0.03,210.0
2022-05-27T02:28:03,42.805,6.029,-0.015,-0.023,-0.007,107.0,108.0,105.0,13.3,1505.2,323.4,-0.8,1.9,2470.841,13.28,0.027,213.1
2022-05-27T02:31:03,42.805,6.029,-0.007,-0.035,-0.015,109.0,106.0,105.0,13.4,1505.2,328.3,-0.7,1.8,2470.918,13.28,0.035,191.3
2022-05-27T02:34:03,42.805,6.029,0.006,-0.036,-0.003,109.0,106.0,105.0,13.4,1505.2,329.2,-0.7,1.8,2470.857,13.28,0.036,170.5
2022-05-27T02:37:03,42.805,6.029,0.0,-0.039,-0.034,108.0,107.0,105.0,13.3,1505.2,329.3,-0.8,1.8,2470.898,13.28,0.039,180.0
2022-05-27T02:40:03,42.805,6.029,-0.006,-0.026,-0.002,109.0,106.0,104.0,13.4,1505.2,324.7,-0.8,1.9,2470.852,13.28,0.026,193.0
2022-05-27T02:43:03,42.805,6.029,0.0,-0.023,-0.013,109.0,108.0,105.0,13.3,1505.2,323.2,-0.7,1.8,2470.866,13.28,0.023,180.0
2022-05-27T02:46:03,42.805,6.029,-0.014,-0.036,0.004,108.0,107.0,105.0,13.4,1505.2,329.2,-0.8,1.8,2470.873,13.28,0.038,201.2
2022-05-27T02:49:03,42.805,6.029,-0.002,-0.012,0.026,108.0,107.0,105.0,13.3,1505.2,327.8,-0.8,1.8,2470.868,13.28,0.012,189.5
2022-05-27T02:52:03,42.805,6.029,0.022,-0.052,-0.006,110.0,108.0,104.0,13.3,1505.2,321.9,-0.8,1.8,2470.888,13.28,0.056,157.1
2022-05-27T02:55:03,42.805,6.029,0.003,-0.028,-0.016,109.0,107.0,105.0,13.4,1505.2,325.5,-0.8,1.8,2470.846,13.28,0.028,173.9
2022-05-27T02:58:03,42.805,6.029,0.015,-0.029,-0.024,109.0,107.0,105.0,13.4,1505.2,324.0,-0.8,1.8,2470.884,13.28,0.032,152.6
2022-05-27T03:04:03,42.805,6.029,0.0,-0.027,0.003,107.0,107.0,105.0,13.3,1505.2,320.8,-0.8,1.8,2470.886,13.28,0.026,180.0
2022-05-27T03:07:03,42.805,6.029,0.0,-0.052,-0.011,107.0,108.0,104.0,13.4,1505.2,326.1,-0.8,1.8,2470.904,13.28,0.052,180.0
2022-05-27T03:10:03,42.805,6.029,0.011,-0.041,-0.012,108.0,108.0,104.0,13.4,1505.2,329.6,-0.8,1.8,2470.926,13.28,0.042,165.0
2022-05-27T03:13:03,42.805,6.029,-0.009,-0.042,-0.015,108.0,107.0,104.0,13.4,1505.2,331.2,-0.8,1.8,2470.9,13.28,0.042,192.1
2022-05-27T03:16:03,42.805,6.029,-0.009,-0.03,-0.01,108.0,106.0,104.0,13.4,1505.2,330.6,-0.7,1.8,2470.882,13.28,0.031,196.7
2022-05-27T03:19:03,42.805,6.029,0.011,-0.031,-0.007,109.0,108.0,104.0,13.4,1505.2,324.0,-0.8,1.8,2470.884,13.28,0.032,160.5
2022-05-27T03:22:03,42.805,6.029,-0.008,-0.054,-0.016,108.0,106.0,104.0,13.4,1505.2,322.8,-0.7,1.8,2470.896,13.28,0.054,188.4
2022-05-27T03:25:03,42.805,6.029,-0.024,-0.05,-0.039,107.0,107.0,106.0,13.4,1505.2,324.0,-0.7,1.8,2470.89,13.28,0.055,205.6
2022-05-27T03:28:03,42.805,6.029,0.008,-0.036,0.008,108.0,108.0,106.0,13.4,1505.2,321.0,-0.8,1.9,2470.876,13.28,0.036,167.5
2022-05-27T03:31:03,42.805,6.029,-0.013,-0.031,-0.005,109.0,108.0,105.0,13.4,1505.2,325.1,-0.8,1.8,2470.933,13.28,0.033,202.7
2022-05-27T03:34:03,42.805,6.029,0.002,-0.057,-0.011,109.0,108.0,105.0,13.3,1505.2,325.7,-0.7,1.8,2470.901,13.28,0.057,178.0
2022-05-27T03:37:03,42.805,6.029,-0.007,-0.032,-0.005,108.0,107.0,105.0,13.4,1505.2,328.2,-0.7,1.8,2470.895,13.28,0.032,192.3
2022-05-27T03:40:03,42.805,6.029,0.005,-0.008,-0.014,108.0,109.0,104.0,13.3,1505.2,327.6,-0.8,1.8,2470.912,13.28,0.009,148.0
2022-05-27T03:43:03,42.805,6.029,-0.029,-0.034,-0.002,108.0,107.0,103.0,13.4,1505.2,326.0,-0.7,1.8,2470.917,13.28,0.044,220.5
2022-05-27T03:46:03,42.805,6.029,0.004,-0.026,-0.031,108.0,106.0,104.0,13.4,1505.2,326.4,-0.8,1.8,2470.907,13.28,0.026,171.3
2022-05-27T03:49:03,42.805,6.029,0.01,-0.049,0.0,107.0,109.0,105.0,13.4,1505.2,322.6,-0.7,1.8,2470.901,13.28,0.05,168.5
2022-05-27T03:52:03,42.805,6.029,0.007,-0.016,-0.025,107.0,107.0,104.0,13.3,1505.2,331.6,-0.8,1.8,2470.923,13.28,0.017,156.4
2022-05-27T03:55:03,42.805,6.029,-0.005,-0.013,-0.008,107.0,107.0,104.0,13.4,1505.2,326.6,-0.8,1.8,2470.892,13.28,0.013,201.0
2022-05-27T03:58:03,42.805,6.029,-0.006,-0.037,-0.028,107.0,106.0,105.0,13.4,1505.2,322.5,-0.7,1.8,2470.905,13.28,0.037,189.2
2022-05-27T04:04:03,42.805,6.029,-0.01,-0.036,-0.012,106.0,106.0,104.0,13.4,1505.2,333.2,-0.8,1.8,2470.961,13.28,0.037,195.5
2022-05-27T04:07:03,42.805,6.029,0.016,-0.017,0.015,106.0,107.0,103.0,13.3,1505.2,324.7,-0.8,1.8,2470.988,13.28,0.023,136.7
2022-05-27T04:10:03,42.805,6.029,-0.017,-0.036,-0.005,106.0,107.0,103.0,13.3,1505.2,324.6,-0.8,1.8,2470.945,13.28,0.039,205.3
2022-05-27T04:13:03,42.805,6.029,-0.014,-0.027,0.0,106.0,105.0,105.0,13.4,1505.2,329.9,-0.7,1.8,2470.944,13.28,0.03,207.4
2022-05-27T04:16:03,42.805,6.029,0.017,-0.037,-0.05,106.0,105.0,104.0,13.4,1505.2,322.9,-0.8,1.8,2470.937,13.28,0.04,155.3
2022-05-27T04:19:03,42.805,6.029,0.001,-0.009,-0.027,107.0,106.0,103.0,13.3,1505.2,324.9,-0.8,1.8,2470.961,13.28,0.009,173.7
2022-05-27T04:22:03,42.805,6.029,-0.012,-0.03,-0.005,108.0,105.0,103.0,13.4,1505.2,327.8,-0.8,1.8,2470.951,13.28,0.032,201.8
2022-05-27T04:25:03,42.805,6.029,-0.01,-0.025,-0.001,106.0,105.0,104.0,13.3,1505.2,327.8,-0.8,1.8,2470.925,13.28,0.026,201.8
2022-05-27T04:28:03,42.805,6.029,-0.008,-0.044,0.005,106.0,107.0,103.0,13.4,1505.2,329.7,-0.8,1.8,2470.965,13.28,0.044,190.3
2022-05-27T04:31:03,42.805,6.029,-0.003,-0.031,-0.024,106.0,106.0,104.0,13.3,1505.2,324.9,-0.8,1.8,2470.929,13.28,0.031,185.5
2022-05-27T04:34:03,42.805,6.029,0.017,-0.047,-0.014,107.0,105.0,104.0,13.3,1505.2,321.8,-0.7,1.8,2470.956,13.28,0.049,160.1
2022-05-27T04:37:03,42.805,6.029,0.016,-0.036,0.013,108.0,106.0,104.0,13.4,1505.2,326.4,-0.8,1.8,2470.979,13.28,0.039,156.0
2022-05-27T04:40:03,42.805,6.029,0.007,-0.027,-0.004,107.0,105.0,104.0,13.3,1505.2,327.2,-0.8,1.8,2470.903,13.28,0.027,165.5
2022-05-27T04:43:03,42.805,6.029,-0.015,-0.056,-0.051,106.0,106.0,103.0,13.4,1505.2,328.5,-0.8,1.8,2470.938,13.28,0.057,195.0
2022-05-27T04:46:03,42.805,6.029,-0.005,-0.039,-0.015,106.0,106.0,103.0,13.4,1505.2,327.4,-0.8,1.8,2470.917,13.28,0.039,187.3
2022-05-27T04:49:03,42.805,6.029,-0.018,-0.041,0.01,107.0,105.0,104.0,13.3,1505.2,327.6,-0.7,1.8,2470.925,13.28,0.044,203.7
2022-05-27T04:52:03,42.805,6.029,0.02,-0.02,0.008,106.0,107.0,103.0,13.3,1505.2,327.7,-0.8,1.8,2470.934,13.28,0.028,135.0
2022-05-27T04:55:03,42.805,6.029,-0.009,-0.024,-0.027,107.0,108.0,105.0,13.4,1505.2,331.8,-0.7,1.8,2470.921,13.28,0.025,200.6
2022-05-27T04:58:03,42.805,6.029,0.02,-0.045,0.014,108.0,108.0,103.0,13.4,1505.2,328.8,-0.8,1.8,2470.937,13.28,0.049,156.0
2022-05-27T05:04:03,42.805,6.029,0.02,-0.041,-0.023,105.0,106.0,104.0,13.4,1505.2,325.0,-0.8,1.8,2470.967,13.28,0.045,154.0
2022-05-27T05:07:03,42.805,6.029,0.009,-0.064,-0.005,107.0,106.0,103.0,13.4,1505.2,322.1,-0.8,1.8,2470.969,13.28,0.064,172.0
2022-05-27T05:10:03,42.805,6.029,-0.003,-0.026,-0.037,106.0,105.0,104.0,13.4,1505.2,328.2,-0.8,1.8,2470.961,13.28,0.026,186.6
2022-05-27T05:13:03,42.805,6.029,0.007,-0.032,-0.023,106.0,105.0,103.0,13.3,1505.2,328.3,-0.8,1.8,2470.976,13.28,0.032,167.7
2022-05-27T05:16:03,42.805,6.029,-0.009,-0.032,-0.006,106.0,106.0,104.0,13.4,1505.2,322.4,-0.7,1.8,2470.975,13.28,0.033,195.7
2022-05-27T05:19:03,42.805,6.029,0.009,-0.04,-0.021,106.0,106.0,104.0,13.4,1505.2,329.1,-0.8,1.8,2470.97,13.28,0.041,167.3
2022-05-27T05:22:03,42.805,6.029,-0.017,-0.04,0.0,105.0,105.0,103.0,13.3,1505.2,327.8,-0.7,1.8,2470.947,13.28,0.043,203.0
2022-05-27T05:25:03,42.805,6.029,0.01,-0.024,-0.018,106.0,106.0,103.0,13.4,1505.2,324.4,-0.8,1.8,2470.94,13.28,0.026,157.4
2022-05-27T05:28:03,42.805,6.029,0.027,-0.046,-0.017,107.0,105.0,103.0,13.4,1505.2,327.0,-0.8,1.8,2470.955,13.28,0.053,149.6
2022-05-27T05:31:03,42.805,6.029,0.001,-0.054,-0.001,105.0,104.0,103.0,13.3,1505.2,332.1,-0.8,1.8,2470.919,13.28,0.054,178.9
2022-05-27T05:34:03,42.805,6.029,-0.006,-0.039,-0.036,106.0,105.0,103.0,13.4,1505.2,330.8,-0.8,1.8,2470.967,13.28,0.039,188.7
2022-05-27T05:37:03,42.805,6.029,0.011,-0.042,-0.009,106.0,105.0,104.0,13.4,1505.2,332.4,-0.8,1.8,2470.908,13.28,0.043,165.3
2022-05-27T05:40:03,42.805,6.029,-0.006,-0.028,-0.018,107.0,106.0,103.0,13.4,1505.2,332.7,-0.8,1.8,2470.961,13.28,0.028,192.1
2022-05-27T05:43:03,42.805,6.029,0.005,-0.03,0.002,105.0,107.0,103.0,13.4,1505.2,323.1,-0.8,1.8,2470.955,13.28,0.03,170.5
2022-05-27T05:46:03,42.805,6.029,0.023,-0.051,0.0,108.0,106.0,103.0,13.4,1505.2,322.3,-0.8,1.8,2470.941,13.28,0.055,155.7
2022-05-27T05:49:03,42.805,6.029,-0.003,-0.02,-0.016,107.0,106.0,103.0,13.4,1505.2,328.5,-0.8,1.8,2470.958,13.28,0.02,188.5
2022-05-27T05:52:03,42.805,6.029,0.001,-0.037,-0.017,107.0,106.0,103.0,13.4,1505.2,324.0,-0.8,1.8,2470.929,13.28,0.037,178.5
2022-05-27T05:55:03,42.805,6.029,-0.002,-0.017,-0.007,107.0,106.0,104.0,13.4,1505.2,323.4,-0.8,1.8,2470.937,13.28,0.017,186.7
2022-05-27T05:58:03,42.805,6.029,0.016,-0.042,-0.007,108.0,107.0,104.0,13.4,1505.2,325.1,-0.7,1.8,2470.935,13.28,0.044,159.1
2022-05-27T06:04:03,42.805,6.029,0.021,-0.027,-0.022,107.0,106.0,103.0,13.4,1505.2,326.0,-0.7,1.8,2470.963,13.28,0.034,142.1
2022-05-27T06:07:03,42.805,6.029,-0.016,-0.037,-0.005,107.0,106.0,103.0,13.4,1505.2,323.8,-0.8,1.8,2470.964,13.28,0.04,203.4
2022-05-27T06:10:03,42.805,6.029,0.023,-0.034,-0.034,107.0,106.0,104.0,13.4,1505.2,320.8,-0.7,1.9,2470.953,13.28,0.041,145.9
2022-05-27T06:13:03,42.805,6.029,-0.004,-0.046,-0.038,109.0,105.0,104.0,13.4,1505.2,324.7,-0.7,1.8,2470.916,13.28,0.046,185.0
2022-05-27T06:16:03,42.805,6.029,-0.011,-0.036,-0.008,107.0,105.0,105.0,13.4,1505.2,331.5,-0.7,1.8,2470.931,13.28,0.037,197.0
2022-05-27T06:19:03,42.805,6.029,0.0,-0.054,-0.02,106.0,105.0,104.0,13.3,1505.2,325.5,-0.8,1.8,2470.938,13.28,0.053,180.0
2022-05-27T06:22:03,42.805,6.029,0.004,-0.065,-0.015,106.0,105.0,103.0,13.4,1505.2,328.7,-0.7,1.9,2470.906,13.28,0.065,176.5
2022-05-27T06:25:03,42.805,6.029,0.005,-0.042,0.005,106.0,107.0,104.0,13.3,1505.2,323.9,-0.8,1.8,2470.942,13.28,0.042,173.2
2022-05-27T06:28:03,42.805,6.029,-0.015,-0.042,-0.009,107.0,106.0,104.0,13.4,1505.2,330.6,-0.8,1.8,2470.897,13.28,0.044,199.6
2022-05-27T06:31:03,42.805,6.029,0.023,-0.047,-0.019,107.0,106.0,103.0,13.3,1505.2,320.2,-0.8,1.8,2470.934,13.28,0.052,153.9
2022-05-27T06:34:03,42.805,6.029,0.007,-0.032,-0.029,106.0,106.0,104.0,13.4,1505.2,328.3,-0.8,1.8,2470.891,13.28,0.032,167.7
2022-05-27T06:37:03,42.805,6.029,0.01,-0.036,-0.006,107.0,106.0,104.0,13.3,1505.2,326.0,-0.7,1.8,2470.882,13.28,0.037,164.5
2022-05-27T06:40:03,42.805,6.029,0.02,-0.051,-0.016,107.0,106.0,104.0,13.3,1505.2,327.2,-0.7,1.8,2470.937,13.28,0.054,158.6
2022-05-27T06:43:03,42.805,6.029,0.018,-0.038,-0.013,106.0,106.0,104.0,13.4,1505.2,326.4,-0.8,1.8,2470.927,13.28,0.042,154.7
2022-05-27T06:46:03,42.805,6.029,0.013,-0.038,-0.016,106.0,106.0,103.0,13.4,1505.2,322.1,-0.8,1.8,2470.899,13.28,0.04,161.1
2022-05-27T06:49:03,42.805,6.029,-0.01,-0.047,0.0,106.0,105.0,103.0,13.4,1505.2,331.9,-0.7,1.8,2470.902,13.28,0.048,192.0
2022-05-27T06:52:03,42.805,6.029,0.013,-0.05,-0.015,108.0,106.0,104.0,13.4,1505.2,328.8,-0.8,1.8,2470.909,13.28,0.051,165.4
2022-05-27T06:55:03,42.805,6.029,0.004,-0.015,-0.015,107.0,106.0,104.0,13.4,1505.2,332.0,-0.8,1.8,2470.904,13.28,0.015,165.1
2022-05-27T06:58:03,42.805,6.029,-0.008,-0.024,-0.02,106.0,106.0,105.0,13.4,1505.2,326.3,-0.8,1.8,2470.891,13.28,0.025,198.4
2022-05-27T07:04:03,42.805,6.029,0.037,-0.04,0.001,106.0,106.0,104.0,13.3,1505.2,332.3,-0.7,1.8,2470.942,13.28,0.054,137.2
2022-05-27T07:07:03,42.805,6.029,0.011,-0.052,-0.034,106.0,105.0,103.0,13.4,1505.2,324.2,-0.8,1.8,2470.926,13.28,0.053,168.1
2022-05-27T07:10:03,42.805,6.029,0.001,-0.046,-0.031,107.0,105.0,104.0,13.4,1505.2,327.7,-0.7,1.8,2470.906,13.28,0.046,178.8
2022-05-27T07:13:03,42.805,6.029,-0.006,-0.034,-0.034,107.0,106.0,103.0,13.4,1505.2,320.1,-0.7,1.8,2470.935,13.28,0.034,190.0
2022-05-27T07:16:03,42.805,6.029,0.011,-0.075,0.001,107.0,107.0,103.0,13.4,1505.2,322.0,-0.8,1.8,2470.914,13.28,0.075,171.7
2022-05-27T07:19:03,42.805,6.029,0.006,-0.066,-0.013,106.0,107.0,103.0,13.4,1505.2,329.1,-0.8,1.8,2470.939,13.28,0.066,174.8
2022-05-27T07:22:03,42.805,6.029,0.024,-0.046,-0.009,105.0,106.0,103.0,13.4,1505.2,326.0,-0.8,1.9,2470.929,13.28,0.051,152.4
2022-05-27T07:25:03,42.805,6.029,0.004,-0.044,-0.024,108.0,106.0,104.0,13.4,1505.2,324.0,-0.8,1.8,2470.909,13.28,0.044,174.8
2022-05-27T07:28:03,42.805,6.029,0.003,-0.045,-0.04,105.0,106.0,103.0,13.4,1505.2,327.1,-0.7,1.8,2470.903,13.28,0.045,176.2
2022-05-27T07:31:03,42.805,6.029,0.026,-0.034,-0.038,106.0,104.0,103.0,13.3,1505.2,322.4,-0.7,1.8,2470.882,13.28,0.042,142.6
2022-05-27T07:34:03,42.805,6.029,0.007,-0.041,-0.025,106.0,105.0,103.0,13.4,1505.2,322.0,-0.8,1.8,2470.876,13.28,0.041,170.3
2022-05-27T07:37:03,42.805,6.029,0.016,-0.048,-0.022,106.0,106.0,104.0,13.4,1505.2,329.1,-0.8,1.8,2470.886,13.28,0.05,161.6
2022-05-27T07:40:03,42.805,6.029,0.007,-0.037,0.005,107.0,105.0,104.0,13.4,1505.2,324.7,-0.8,1.8,2470.893,13.28,0.037,169.3
2022-05-27T07:43:03,42.805,6.029,0.004,-0.045,-0.037,106.0,105.0,103.0,13.4,1505.2,323.2,-0.7,1.8,2470.874,13.28,0.045,174.9
2022-05-27T07:46:03,42.805,6.029,0.0,-0.042,0.002,109.0,104.0,104.0,13.4,1505.2,327.6,-0.8,1.8,2470.858,13.28,0.042,180.0
2022-05-27T07:49:03,42.805,6.029,-0.006,-0.037,-0.056,107.0,105.0,102.0,13.4,1505.2,323.6,-0.8,1.8,2470.858,13.28,0.037,189.2
2022-05-27T07:52:03,42.805,6.029,0.016,-0.054,-0.022,107.0,106.0,104.0,13.4,1505.2,324.0,-0.8,1.8,2470.869,13.28,0.056,163.5
2022-05-27T07:55:03,42.805,6.029,0.016,-0.028,-0.004,107.0,107.0,104.0,13.3,1505.2,327.2,-0.8,1.8,2470.886,13.28,0.032,150.3
2022-05-27T07:58:03,42.805,6.029,-0.006,-0.026,0.0,107.0,105.0,104.0,13.4,1505.2,329.0,-0.8,1.8,2470.859,13.28,0.026,193.0
2022-05-27T08:04:03,42.805,6.029,0.013,-0.04,-0.041,107.0,105.0,103.0,13.4,1505.2,321.4,-0.7,1.8,2470.877,13.28,0.042,162.0
2022-05-27T08:07:03,42.805,6.029,0.002,-0.052,-0.027,106.0,105.0,103.0,13.4,1505.2,323.0,-0.8,1.9,2470.838,13.28,0.052,177.8
2022-05-27T08:10:03,42.805,6.029,0.024,-0.031,-0.017,105.0,105.0,103.0,13.4,1505.2,329.7,-0.8,1.9,2470.831,13.28,0.039,142.3
2022-05-27T08:13:03,42.805,6.029,-0.005,-0.046,0.0,106.0,105.0,103.0,13.4,1505.2,330.8,-0.8,1.8,2470.903,13.28,0.046,186.2
2022-05-27T08:16:03,42.805,6.029,0.022,-0.05,-0.013,106.0,106.0,105.0,13.4,1505.2,323.3,-0.7,1.8,2470.855,13.28,0.054,156.3
2022-05-27T08:19:03,42.805,6.029,0.015,-0.049,-0.06,106.0,106.0,104.0,13.4,1505.2,320.6,-0.7,1.8,2470.892,13.28,0.051,163.0
2022-05-27T08:22:03,42.805,6.029,0.011,-0.027,-0.008,106.0,105.0,103.0,13.4,1505.2,329.3,-0.8,1.8,2470.899,13.28,0.029,157.8
2022-05-27T08:25:03,42.805,6.029,-0.008,-0.034,-0.019,106.0,105.0,104.0,13.4,1505.2,327.8,-0.8,1.8,2470.852,13.28,0.034,193.2
2022-05-27T08:28:03,42.805,6.029,0.009,-0.06,-0.01,107.0,105.0,104.0,13.4,1505.2,330.0,-0.8,1.8,2470.841,13.28,0.06,171.5
2022-05-27T08:31:03,42.805,6.029,0.013,-0.062,-0.008,107.0,107.0,104.0,13.4,1505.2,328.8,-0.7,1.8,2470.855,13.28,0.063,168.2
2022-05-27T08:34:03,42.805,6.029,0.016,-0.058,0.0,106.0,106.0,103.0,13.4,1505.2,324.9,-0.8,1.9,2470.861,13.28,0.06,164.6
2022-05-27T08:37:03,42.805,6.029,0.01,-0.024,-0.039,107.0,107.0,103.0,13.4,1505.2,321.5,-0.8,1.8,2470.822,13.28,0.026,157.4
2022-05-27T08:40:03,42.805,6.029,0.007,-0.043,-0.033,107.0,106.0,104.0,13.4,1505.2,330.6,-0.7,1.8,2470.848,13.28,0.043,170.8
2022-05-27T08:43:03,42.805,6.029,0.016,-0.04,-0.009,107.0,107.0,103.0,13.3,1505.2,325.2,-0.7,1.8,2470.846,13.28,0.043,158.2
2022-05-27T08:46:03,42.805,6.029,-0.01,-0.048,-0.04,108.0,105.0,104.0,13.4,1505.2,323.2,-0.8,1.8,2470.841,13.28,0.049,191.8
2022-05-27T08:49:03,42.805,6.029,0.004,-0.031,-0.019,107.0,106.0,103.0,13.4,1505.2,329.6,-0.7,1.8,2470.83,13.28,0.031,172.7
2022-05-27T08:52:03,42.805,6.029,0.01,-0.036,-0.021,107.0,105.0,104.0,13.4,1505.2,321.2,-0.8,1.8,2470.829,13.28,0.037,164.5
2022-05-27T08:55:03,42.805,6.029,0.003,-0.04,-0.004,106.0,106.0,103.0,13.4,1505.2,324.8,-0.7,1.8,2470.817,13.28,0.04,175.7
2022-05-27T08:58:03,42.805,6.029,0.01,-0.036,0.011,106.0,105.0,103.0,13.3,1505.2,327.4,-0.8,1.8,2470.816,13.28,0.037,164.5
2022-05-27T09:04:03,42.805,6.029,0.003,-0.034,-0.046,107.0,107.0,105.0,13.3,1505.2,328.7,-0.8,1.8,2470.844,13.28,0.034,175.0
2022-05-27T09:07:03,42.805,6.029,0.009,-0.048,0.0,108.0,106.0,104.0,13.4,1505.2,331.5,-0.8,1.8,2470.826,13.28,0.048,169.4
2022-05-27T09:10:03,42.805,6.029,0.0,-0.046,-0.015,106.0,107.0,103.0,13.4,1505.2,327.4,-0.7,1.8,2470.859,13.28,0.046,180.0
2022-05-27T09:13:03,42.805,6.029,0.031,-0.018,-0.028,107.0,106.0,104.0,13.4,1505.2,326.3,-0.7,1.8,2470.86,13.28,0.035,120.1
2022-05-27T09:16:03,42.805,6.029,-0.005,-0.047,-0.011,107.0,106.0,104.0,13.3,1505.2,327.6,-0.7,1.8,2470.839,13.28,0.047,186.1
2022-05-27T09:19:03,42.805,6.029,0.002,-0.03,-0.006,107.0,106.0,104.0,13.4,1505.2,327.6,-0.8,1.8,2470.811,13.28,0.03,176.2
2022-05-27T09:22:03,42.805,6.029,-0.008,-0.04,-0.019,107.0,106.0,105.0,13.3,1505.2,330.3,-0.7,1.8,2470.843,13.28,0.04,191.3
2022-05-27T09:25:03,42.805,6.029,-0.009,-0.04,0.006,108.0,105.0,105.0,13.4,1505.2,329.4,-0.7,1.8,2470.829,13.28,0.041,192.7
2022-05-27T09:28:03,42.805,6.029,-0.001,-0.034,-0.01,108.0,106.0,105.0,13.4,1505.2,329.8,-0.8,1.8,2470.815,13.28,0.034,181.7
2022-05-27T09:31:03,42.805,6.029,0.006,-0.048,-0.025,109.0,107.0,104.0,13.4,1505.2,321.5,-0.8,1.8,2470.852,13.28,0.048,172.9
2022-05-27T09:34:03,42.805,6.029,-0.005,-0.057,-0.023,108.0,108.0,105.0,13.3,1505.2,322.5,-0.8,1.8,2470.812,13.28,0.057,185.0
2022-05-27T09:37:03,42.805,6.029,-0.01,-0.058,-0.049,106.0,107.0,105.0,13.3,1505.2,321.7,-0.8,1.8,2470.793,13.28,0.058,189.8
2022-05-27T09:40:03,42.805,6.029,-0.025,-0.037,-0.015,107.0,107.0,104.0,13.4,1505.2,329.9,-0.8,1.8,2470.82,13.28,0.044,214.0
2022-05-27T09:43:03,42.805,6.029,-0.011,-0.042,-0.018,107.0,106.0,104.0,13.4,1505.2,332.1,-0.7,1.8,2470.813,13.28,0.043,194.7
2022-05-27T09:46:03,42.805,6.029,-0.002,-0.06,-0.018,107.0,106.0,105.0,13.4,1505.2,324.9,-0.8,1.8,2470.809,13.28,0.06,181.9
2022-05-27T09:49:03,42.805,6.029,-0.008,-0.06,-0.046,108.0,106.0,103.0,13.4,1505.2,326.9,-0.7,1.8,2470.826,13.28,0.06,187.6
2022-05-27T09:52:03,42.805,6.029,0.015,-0.055,-0.008,108.0,106.0,104.0,13.4,1505.2,325.0,-0.8,1.8,2470.775,13.28,0.057,164.7